Weather History for Clarksburg, WV

Change the Weather History Date:

Thursday, November 10, 2011

  Actual Average Record
Temperature  
Mean Temperature 46 °F -  
Max Temperature 57 °F 56 °F 77 °F (1977)
Min Temperature 36 °F 34 °F 20 °F (1929)
Degree Days  
Heating Degree Days 18    
Moisture  
Dew Point 34 °F    
Average Humidity 70    
Maximum Humidity 94    
Minimum Humidity 53    
Precipitation  
Precipitation 0.00 in - - ()
Sea Level Pressure  
Sea Level Pressure 29.97 in    
Wind  
Wind Speed 9 mph (West)    
Max Wind Speed 18 mph    
Max Gust Speed 25 mph    
Visibility 10 miles    
Events Rain    
Averages and records for this station are not official NWS values.
T = Trace of Precipitation, MM = Missing Value Source: NWS Daily Summary

Daily Weather History Graph

Daily Weather History Graph

Search for Another Location

Airport:

Trip Planner

Search our weather history database for the weather conditions in past years. The results will help you decide how hot, cold, wet, or windy it might be!

Date:

Astronomy

Nov. 10, 2011 Rise Set
Actual Time 6:58 AM EST 5:10 PM EST
Civil Twilight 6:30 AM EST 5:38 PM EST
Nautical Twilight 5:58 AM EST 6:11 PM EST
Astronomical Twilight 5:26 AM EST 6:42 PM EST
Moon 4:57 PM EST (11/10) 6:49 AM EST (11/10)
Length of Visible Light 11h 08m
Length of Day
10h 12m
Full, 100% of the Moon is Illuminated
Nov 10
Full
Nov 10
Full
Nov 18
Last Quarter
Nov 25
New
Dec 2
First Quarter

Hourly Weather History & Observations

Time (EST) Temp. Windchill Dew Point Humidity Pressure Visibility Wind Dir Wind Speed Gust Speed Precip Events Conditions
12:02 AM 55.4 °F - 53.6 °F 94% 29.93 in 10.0 mi SW 8.1 mph - N/A   Scattered Clouds
12:37 AM 57.2 °F - 51.8 °F 82% 29.94 in 10.0 mi WSW 8.1 mph - N/A   Mostly Cloudy
12:53 AM 55.9 °F - 51.1 °F 84% 29.90 in 10.0 mi West 10.4 mph - N/A   Overcast
1:27 AM 51.8 °F - 44.6 °F 76% 29.96 in 10.0 mi West 18.4 mph 25.3 mph N/A   Overcast
1:53 AM 48.9 °F - 41.0 °F 74% 29.95 in 10.0 mi WNW 10.4 mph - N/A   Overcast
2:03 AM 48.2 °F - 41.0 °F 76% 29.98 in 10.0 mi WNW 15.0 mph 21.9 mph N/A   Overcast
2:53 AM 46.9 °F - 37.0 °F 68% 29.99 in 10.0 mi West 9.2 mph - N/A   Overcast
3:53 AM 44.6 °F 40.7 °F 35.6 °F 71% 30.02 in 10.0 mi West 6.9 mph - N/A   Overcast
4:13 AM 42.8 °F 37.0 °F 33.8 °F 70% 30.03 in 10.0 mi West 10.4 mph - N/A   Overcast
4:53 AM 43.0 °F 39.5 °F 33.1 °F 68% 30.01 in 10.0 mi West 5.8 mph - N/A   Overcast
5:53 AM 42.1 °F 39.2 °F 32.0 °F 67% 30.02 in 10.0 mi West 4.6 mph - N/A   Overcast
6:53 AM 42.8 °F 40.1 °F 33.8 °F 70% 30.03 in 10.0 mi WSW 4.6 mph - N/A   Overcast
7:53 AM 42.8 °F 37.0 °F 32.0 °F 66% 30.04 in 10.0 mi WSW 10.4 mph - N/A   Overcast
8:53 AM 41.0 °F 35.8 °F 33.1 °F 73% 30.04 in 10.0 mi WSW 8.1 mph - N/A   Overcast
9:53 AM 43.0 °F 39.5 °F 32.0 °F 65% 30.03 in 10.0 mi West 5.8 mph - N/A   Overcast
10:34 AM 42.8 °F 38.6 °F 33.8 °F 70% 30.03 in 10.0 mi WSW 6.9 mph - 0.00 in   Overcast
10:53 AM 43.0 °F 38.8 °F 34.0 °F 71% 30.02 in 10.0 mi West 6.9 mph - 0.00 in   Scattered Clouds
11:53 AM 43.0 °F 36.4 °F 32.0 °F 65% 30.00 in 10.0 mi WSW 12.7 mph - N/A   Overcast
12:22 PM 42.8 °F 37.0 °F 30.2 °F 61% 29.99 in 10.0 mi West 10.4 mph 17.3 mph N/A   Mostly Cloudy
12:31 PM 44.6 °F 38.8 °F 30.2 °F 57% 29.98 in 10.0 mi WNW 11.5 mph 17.3 mph N/A   Mostly Cloudy
12:53 PM 44.6 °F 40.2 °F 30.2 °F 57% 29.97 in 10.0 mi West 8.1 mph - N/A   Partly Cloudy
1:53 PM 44.1 °F 38.6 °F 30.0 °F 58% 29.95 in 10.0 mi WSW 10.4 mph - N/A   Partly Cloudy
2:53 PM 45.0 °F 40.1 °F 28.9 °F 53% 29.93 in 10.0 mi West 9.2 mph - N/A   Partly Cloudy
3:53 PM 45.0 °F 41.2 °F 28.9 °F 53% 29.92 in 10.0 mi West 6.9 mph - N/A   Overcast
4:53 PM 44.1 °F 42.5 °F 28.9 °F 55% 29.91 in 10.0 mi West 3.5 mph - N/A   Overcast
5:53 PM 39.9 °F 35.8 °F 28.0 °F 63% 29.91 in 10.0 mi SSW 5.8 mph - N/A   Mostly Cloudy
6:53 PM 39.9 °F 37.8 °F 28.0 °F 63% 29.90 in 10.0 mi SSW 3.5 mph - N/A   Clear
7:53 PM 37.9 °F 30.5 °F 33.1 °F 83% 29.93 in 10.0 mi WNW 11.5 mph 23.0 mph 0.00 in Rain Light Rain
8:29 PM 37.4 °F 32.1 °F 33.8 °F 87% 29.93 in 10.0 mi WNW 6.9 mph - 0.00 in   Overcast
8:53 PM 37.0 °F 31.6 °F 30.9 °F 79% 29.94 in 10.0 mi West 6.9 mph - 0.00 in   Overcast
9:53 PM 36.0 °F 33.3 °F 30.9 °F 82% 29.95 in 10.0 mi West 3.5 mph - N/A   Overcast
10:53 PM 37.0 °F 32.4 °F 30.9 °F 79% 29.96 in 10.0 mi West 5.8 mph - N/A   Overcast
11:53 PM 36.0 °F 30.3 °F 28.0 °F 73% 29.95 in 10.0 mi West 6.9 mph - N/A   Clear